Time,TemperatureF,DewpointF,PressureIn,WindDirection,WindDirectionDegrees,WindSpeedMPH,WindSpeedGustMPH,Humidity,HourlyPrecipIn,Conditions,Clouds,dailyrainin,SoftwareType,DateUTC
2013-04-03 00:02:00,54.0,48.0,30.01,SW,229,0.0,-999.0,81,-99.99,,,-99.99,,2013-04-03 07:02:00,
2013-04-03 00:12:00,54.0,48.0,30.01,SW,229,0.0,-999.0,81,-99.99,,,-99.99,,2013-04-03 07:12:00,
2013-04-03 00:22:00,54.0,48.0,30.01,SW,229,0.0,-999.0,81,-99.99,,,-99.99,,2013-04-03 07:22:00,
2013-04-03 00:32:00,54.0,49.0,30.01,SW,229,0.0,-999.0,82,-99.99,,,-99.99,,2013-04-03 07:32:00,
2013-04-03 00:42:00,54.0,49.0,30.01,SW,229,0.0,-999.0,82,-99.99,,,-99.99,,2013-04-03 07:42:00,
2013-04-03 00:52:00,54.0,49.0,30.01,SW,229,0.0,-999.0,82,-99.99,,,-99.99,,2013-04-03 07:52:00,
2013-04-03 01:02:00,53.0,48.0,30.01,SW,229,0.0,-999.0,82,-99.99,,,-99.99,,2013-04-03 08:02:00,
2013-04-03 01:12:00,53.0,48.0,30.01,SW,229,0.0,-999.0,82,-99.99,,,-99.99,,2013-04-03 08:12:00,
2013-04-03 01:22:00,53.0,48.0,30.01,SW,229,0.0,-999.0,83,-99.99,,,-99.99,,2013-04-03 08:22:00,
2013-04-03 01:32:00,53.0,48.0,30.01,SW,229,0.0,-999.0,84,-99.99,,,-99.99,,2013-04-03 08:32:00,
2013-04-03 01:42:00,53.0,48.0,30.01,SW,229,0.0,-999.0,84,-99.99,,,-99.99,,2013-04-03 08:42:00,
2013-04-03 01:51:00,53.0,49.0,30.01,SW,229,0.0,-999.0,85,-99.99,,,-99.99,,2013-04-03 08:51:00,
2013-04-03 02:02:00,53.0,48.0,30.01,SW,229,0.0,-999.0,84,-99.99,,,-99.99,,2013-04-03 09:02:00,
2013-04-03 02:11:00,53.0,48.0,30.01,SW,229,0.0,-999.0,84,-99.99,,,-99.99,,2013-04-03 09:11:00,
2013-04-03 02:21:00,52.0,48.0,30.01,SW,229,0.0,-999.0,85,-99.99,,,-99.99,,2013-04-03 09:21:00,
2013-04-03 02:32:00,52.0,48.0,30.01,SW,229,0.0,-999.0,85,-99.99,,,-99.99,,2013-04-03 09:32:00,
2013-04-03 02:43:00,52.0,48.0,30.01,SW,229,0.0,-999.0,85,-99.99,,,-99.99,,2013-04-03 09:43:00,
2013-04-03 02:52:00,51.0,47.0,30.01,SW,229,0.0,-999.0,85,-99.99,,,-99.99,,2013-04-03 09:52:00,
2013-04-03 03:02:00,51.0,47.0,30.01,SW,229,0.0,-999.0,86,-99.99,,,-99.99,,2013-04-03 10:02:00,
2013-04-03 03:12:00,51.0,47.0,30.01,SW,229,0.0,-999.0,86,-99.99,,,-99.99,,2013-04-03 10:12:00,
2013-04-03 03:22:00,52.0,48.0,30.01,SW,226,0.0,-999.0,86,-99.99,,,-99.99,,2013-04-03 10:22:00,
2013-04-03 03:33:00,52.0,48.0,30.00,SW,226,0.0,-999.0,86,-99.99,,,-99.99,,2013-04-03 10:33:00,
2013-04-03 03:42:00,52.0,48.0,30.00,SW,226,0.0,-999.0,86,-99.99,,,-99.99,,2013-04-03 10:42:00,
2013-04-03 03:52:00,52.0,48.0,30.01,SW,226,0.0,-999.0,85,-99.99,,,-99.99,,2013-04-03 10:52:00,
2013-04-03 04:02:00,52.0,48.0,30.01,SW,226,0.0,-999.0,86,-99.99,,,-99.99,,2013-04-03 11:02:00,
2013-04-03 04:12:00,52.0,48.0,30.01,SW,226,0.0,-999.0,86,-99.99,,,-99.99,,2013-04-03 11:12:00,
2013-04-03 04:22:00,52.0,49.0,30.01,SW,226,0.0,-999.0,88,-99.99,,,-99.99,,2013-04-03 11:22:00,
2013-04-03 04:32:00,51.0,48.0,30.01,SW,226,0.0,-999.0,89,-99.99,,,-99.99,,2013-04-03 11:32:00,
2013-04-03 04:42:00,51.0,48.0,30.01,SW,226,0.0,-999.0,89,-99.99,,,-99.99,,2013-04-03 11:42:00,
2013-04-03 04:52:00,50.0,47.0,30.01,SW,226,0.0,-999.0,91,-99.99,,,-99.99,,2013-04-03 11:52:00,
2013-04-03 05:01:00,50.0,47.0,30.01,SW,226,0.0,-999.0,91,-99.99,,,-99.99,,2013-04-03 12:01:00,
2013-04-03 05:12:00,50.0,47.0,30.01,SW,226,0.0,-999.0,91,-99.99,,,-99.99,,2013-04-03 12:12:00,
2013-04-03 05:22:00,49.0,47.0,30.01,SW,226,0.0,-999.0,92,-99.99,,,-99.99,,2013-04-03 12:22:00,
2013-04-03 05:32:00,49.0,47.0,30.01,SW,226,0.0,-999.0,93,-99.99,,,-99.99,,2013-04-03 12:32:00,
2013-04-03 05:42:00,49.0,47.0,30.01,SW,226,0.0,-999.0,93,-99.99,,,-99.99,,2013-04-03 12:42:00,
2013-04-03 05:52:00,49.0,47.0,30.01,SW,226,0.0,-999.0,93,-99.99,,,-99.99,,2013-04-03 12:52:00,
2013-04-03 06:02:00,48.0,46.0,30.02,SW,226,0.0,-999.0,93,-99.99,,,-99.99,,2013-04-03 13:02:00,
2013-04-03 06:12:00,48.0,46.0,30.02,SW,226,0.0,-999.0,93,-99.99,,,-99.99,,2013-04-03 13:12:00,
2013-04-03 06:22:00,48.0,46.0,30.02,SW,226,0.0,-999.0,94,-99.99,,,-99.99,,2013-04-03 13:22:00,
2013-04-03 06:32:00,47.0,45.0,30.03,SW,226,0.0,-999.0,94,-99.99,,,-99.99,,2013-04-03 13:32:00,
2013-04-03 06:42:00,47.0,45.0,30.03,SW,226,0.0,-999.0,94,-99.99,,,-99.99,,2013-04-03 13:42:00,
2013-04-03 06:52:00,47.0,45.0,30.03,SW,226,0.0,-999.0,94,-99.99,,,-99.99,,2013-04-03 13:52:00,
2013-04-03 07:02:00,48.0,47.0,30.03,SW,226,0.0,-999.0,95,-99.99,,,-99.99,,2013-04-03 14:02:00,
2013-04-03 07:12:00,48.0,47.0,30.03,SW,226,0.0,-999.0,95,-99.99,,,-99.99,,2013-04-03 14:12:00,
2013-04-03 07:21:00,48.0,47.0,30.03,SW,226,0.0,-999.0,95,-99.99,,,-99.99,,2013-04-03 14:21:00,
2013-04-03 07:32:00,49.0,48.0,30.03,SW,226,0.0,-999.0,95,-99.99,,,-99.99,,2013-04-03 14:32:00,
2013-04-03 07:42:00,49.0,48.0,30.03,SW,226,0.0,-999.0,95,-99.99,,,-99.99,,2013-04-03 14:42:00,
2013-04-03 07:52:00,50.0,49.0,30.04,SW,226,0.0,-999.0,96,-99.99,,,-99.99,,2013-04-03 14:52:00,
2013-04-03 08:02:00,52.0,51.0,30.04,SW,226,0.0,-999.0,96,-99.99,,,-99.99,,2013-04-03 15:02:00,
2013-04-03 08:12:00,52.0,51.0,30.04,SW,226,0.0,-999.0,96,-99.99,,,-99.99,,2013-04-03 15:12:00,
2013-04-03 08:22:00,53.0,52.0,30.04,SW,226,0.0,-999.0,96,-99.99,,,-99.99,,2013-04-03 15:22:00,
2013-04-03 08:33:00,54.0,53.0,30.04,SW,226,0.0,-999.0,95,-99.99,,,-99.99,,2013-04-03 15:33:00,
2013-04-03 08:42:00,54.0,53.0,30.04,SW,226,0.0,-999.0,95,-99.99,,,-99.99,,2013-04-03 15:42:00,
2013-04-03 08:53:00,55.0,52.0,30.05,SW,220,0.0,-999.0,91,-99.99,,,-99.99,,2013-04-03 15:53:00,
2013-04-03 09:02:00,58.0,54.0,30.04,SSW,205,0.0,-999.0,86,-99.99,,,-99.99,,2013-04-03 16:02:00,
2013-04-03 09:12:00,58.0,54.0,30.04,SSW,205,0.0,-999.0,86,-99.99,,,-99.99,,2013-04-03 16:12:00,
2013-04-03 09:23:00,60.0,54.0,30.04,ENE,71,0.0,-999.0,80,-99.99,,,-99.99,,2013-04-03 16:23:00,
2013-04-03 09:32:00,62.0,53.0,30.04,SW,235,0.0,-999.0,73,-99.99,,,-99.99,,2013-04-03 16:32:00,
2013-04-03 09:43:00,62.0,53.0,30.04,SW,235,0.0,-999.0,73,-99.99,,,-99.99,,2013-04-03 16:43:00,
2013-04-03 09:52:00,64.0,54.0,30.04,SW,232,0.0,-999.0,70,-99.99,,,-99.99,,2013-04-03 16:52:00,
2013-04-03 10:02:00,67.0,55.0,30.05,SW,227,0.0,-999.0,65,-99.99,,,-99.99,,2013-04-03 17:02:00,
2013-04-03 10:12:00,67.0,55.0,30.05,SW,227,0.0,-999.0,65,-99.99,,,-99.99,,2013-04-03 17:12:00,
2013-04-03 10:22:00,68.0,56.0,30.05,SW,230,0.0,-999.0,65,-99.99,,,-99.99,,2013-04-03 17:22:00,
2013-04-03 10:32:00,65.0,55.0,30.05,SW,235,0.0,-999.0,70,-99.99,,,-99.99,,2013-04-03 17:32:00,
2013-04-03 10:45:00,65.0,55.0,30.05,SW,235,0.0,-999.0,70,-99.99,,,-99.99,,2013-04-03 17:45:00,
2013-04-03 10:52:00,65.0,56.0,30.05,SW,235,0.0,-999.0,72,-99.99,,,-99.99,,2013-04-03 17:52:00,
2013-04-03 11:02:00,66.0,56.0,30.06,SW,236,0.0,-999.0,70,-99.99,,,-99.99,,2013-04-03 18:02:00,
2013-04-03 11:12:00,66.0,56.0,30.06,SW,236,0.0,-999.0,70,-99.99,,,-99.99,,2013-04-03 18:12:00,
2013-04-03 11:22:00,66.0,56.0,30.06,SW,234,0.0,-999.0,69,-99.99,,,-99.99,,2013-04-03 18:22:00,
2013-04-03 11:33:00,67.0,56.0,30.05,SW,234,0.0,-999.0,69,-99.99,,,-99.99,,2013-04-03 18:33:00,
2013-04-03 11:42:00,67.0,56.0,30.05,SW,234,0.0,-999.0,69,-99.99,,,-99.99,,2013-04-03 18:42:00,
2013-04-03 11:52:00,68.0,56.0,30.04,WSW,253,0.0,-999.0,65,-99.99,,,-99.99,,2013-04-03 18:52:00,
2013-04-03 12:02:00,70.0,57.0,30.04,WSW,250,0.0,-999.0,64,-99.99,,,-99.99,,2013-04-03 19:02:00,
2013-04-03 12:21:00,71.0,57.0,30.03,WSW,253,0.0,-999.0,62,-99.99,,,-99.99,,2013-04-03 19:21:00,
2013-04-03 12:32:00,71.0,56.0,30.03,SW,223,0.0,-999.0,60,-99.99,,,-99.99,,2013-04-03 19:32:00,
2013-04-03 12:42:00,71.0,56.0,30.03,SW,223,0.0,-999.0,60,-99.99,,,-99.99,,2013-04-03 19:42:00,
2013-04-03 12:52:00,71.0,57.0,30.04,WSW,240,0.0,-999.0,61,-99.99,,,-99.99,,2013-04-03 19:52:00,
2013-04-03 13:02:00,70.0,57.0,30.03,WSW,237,1.0,-999.0,63,-99.99,,,-99.99,,2013-04-03 20:02:00,
2013-04-03 13:12:00,70.0,57.0,30.03,WSW,237,1.0,-999.0,63,-99.99,,,-99.99,,2013-04-03 20:12:00,
2013-04-03 13:22:00,68.0,57.0,30.04,SSE,155,1.0,-999.0,67,-99.99,,,-99.99,,2013-04-03 20:22:00,
2013-04-03 13:32:00,68.0,57.0,30.03,SW,233,1.0,-999.0,67,-99.99,,,-99.99,,2013-04-03 20:32:00,
2013-04-03 13:42:00,68.0,57.0,30.03,SW,233,1.0,-999.0,67,-99.99,,,-99.99,,2013-04-03 20:42:00,
2013-04-03 13:52:00,68.0,57.0,30.03,SW,229,0.0,-999.0,68,-99.99,,,-99.99,,2013-04-03 20:52:00,
2013-04-03 14:02:00,67.0,56.0,30.03,WSW,242,1.0,-999.0,68,-99.99,,,-99.99,,2013-04-03 21:02:00,
2013-04-03 14:12:00,67.0,56.0,30.03,WSW,242,1.0,-999.0,68,-99.99,,,-99.99,,2013-04-03 21:12:00,
2013-04-03 14:22:00,67.0,56.0,30.03,SW,226,1.0,-999.0,68,-99.99,,,-99.99,,2013-04-03 21:22:00,
2013-04-03 14:32:00,68.0,57.0,30.03,SSW,194,1.0,-999.0,68,-99.99,,,-99.99,,2013-04-03 21:32:00,
2013-04-03 14:42:00,68.0,57.0,30.03,SSW,194,1.0,-999.0,68,-99.99,,,-99.99,,2013-04-03 21:42:00,
2013-04-03 14:52:00,68.0,57.0,30.02,SW,218,1.0,-999.0,68,-99.99,,,-99.99,,2013-04-03 21:52:00,
2013-04-03 15:02:00,68.0,57.0,30.02,SW,223,0.0,-999.0,67,-99.99,,,-99.99,,2013-04-03 22:02:00,
2013-04-03 15:12:00,68.0,57.0,30.02,SW,223,0.0,-999.0,67,-99.99,,,-99.99,,2013-04-03 22:12:00,
2013-04-03 15:22:00,69.0,58.0,30.02,West,267,0.0,-999.0,68,-99.99,,,-99.99,,2013-04-03 22:22:00,
2013-04-03 15:32:00,69.0,58.0,30.01,WSW,250,0.0,-999.0,67,-99.99,,,-99.99,,2013-04-03 22:32:00,
2013-04-03 15:42:00,69.0,58.0,30.01,WSW,250,0.0,-999.0,67,-99.99,,,-99.99,,2013-04-03 22:42:00,
2013-04-03 15:52:00,69.0,57.0,30.01,SW,235,0.0,-999.0,66,-99.99,,,-99.99,,2013-04-03 22:52:00,
2013-04-03 16:02:00,71.0,57.0,30.00,West,264,0.0,-999.0,62,-99.99,,,-99.99,,2013-04-03 23:02:00,
2013-04-03 16:12:00,71.0,57.0,30.00,West,264,0.0,-999.0,62,-99.99,,,-99.99,,2013-04-03 23:12:00,
2013-04-03 16:21:00,71.0,55.0,29.99,West,264,0.0,-999.0,57,-99.99,,,-99.99,,2013-04-03 23:21:00,
2013-04-03 16:32:00,71.0,55.0,29.99,West,264,0.0,-999.0,57,-99.99,,,-99.99,,2013-04-03 23:32:00,
2013-04-03 16:42:00,71.0,55.0,29.99,West,264,0.0,-999.0,57,-99.99,,,-99.99,,2013-04-03 23:42:00,
2013-04-03 16:52:00,73.0,56.0,29.98,WSW,239,0.0,-999.0,55,-99.99,,,-99.99,,2013-04-03 23:52:00,
2013-04-03 17:02:00,73.0,55.0,29.98,WSW,245,0.0,-999.0,54,-99.99,,,-99.99,,2013-04-04 00:02:00,
2013-04-03 17:12:00,73.0,55.0,29.98,WSW,245,0.0,-999.0,54,-99.99,,,-99.99,,2013-04-04 00:12:00,
2013-04-03 17:22:00,72.0,55.0,29.98,SW,230,0.0,-999.0,56,-99.99,,,-99.99,,2013-04-04 00:22:00,
2013-04-03 17:32:00,72.0,55.0,29.98,SW,230,0.0,-999.0,56,-99.99,,,-99.99,,2013-04-04 00:32:00,
2013-04-03 17:42:00,72.0,55.0,29.98,SW,230,0.0,-999.0,56,-99.99,,,-99.99,,2013-04-04 00:42:00,
2013-04-03 17:52:00,70.0,55.0,29.97,SW,232,0.0,-999.0,60,-99.99,,,-99.99,,2013-04-04 00:52:00,
2013-04-03 18:02:00,66.0,54.0,29.98,SW,221,0.0,-999.0,65,-99.99,,,-99.99,,2013-04-04 01:02:00,
2013-04-03 18:11:00,66.0,54.0,29.98,SW,221,0.0,-999.0,65,-99.99,,,-99.99,,2013-04-04 01:11:00,
2013-04-03 18:22:00,65.0,55.0,29.98,WSW,241,0.0,-999.0,70,-99.99,,,-99.99,,2013-04-04 01:22:00,
2013-04-03 18:32:00,63.0,54.0,29.98,SW,227,0.0,-999.0,72,-99.99,,,-99.99,,2013-04-04 01:32:00,
2013-04-03 18:43:00,63.0,54.0,29.98,SW,227,0.0,-999.0,72,-99.99,,,-99.99,,2013-04-04 01:43:00,
2013-04-03 18:52:00,62.0,54.0,29.99,SW,226,0.0,-999.0,75,-99.99,,,-99.99,,2013-04-04 01:52:00,
2013-04-03 19:02:00,61.0,53.0,29.99,SW,230,0.0,-999.0,76,-99.99,,,-99.99,,2013-04-04 02:02:00,
2013-04-03 19:12:00,61.0,53.0,29.99,SW,230,0.0,-999.0,76,-99.99,,,-99.99,,2013-04-04 02:12:00,
2013-04-03 19:22:00,61.0,54.0,29.99,SW,231,0.0,-999.0,78,-99.99,,,-99.99,,2013-04-04 02:22:00,
2013-04-03 19:32:00,59.0,53.0,29.99,SW,231,0.0,-999.0,80,-99.99,,,-99.99,,2013-04-04 02:32:00,
2013-04-03 19:42:00,59.0,53.0,29.99,SW,231,0.0,-999.0,80,-99.99,,,-99.99,,2013-04-04 02:42:00,
2013-04-03 19:52:00,59.0,53.0,29.99,SW,231,0.0,-999.0,80,-99.99,,,-99.99,,2013-04-04 02:52:00,
2013-04-03 20:02:00,58.0,53.0,30.00,SW,230,0.0,-999.0,84,-99.99,,,-99.99,,2013-04-04 03:02:00,
2013-04-03 20:11:00,58.0,53.0,30.00,SW,230,0.0,-999.0,84,-99.99,,,-99.99,,2013-04-04 03:11:00,
2013-04-03 20:22:00,57.0,53.0,30.01,SW,231,0.0,-999.0,86,-99.99,,,-99.99,,2013-04-04 03:22:00,
2013-04-03 20:33:00,56.0,52.0,30.01,SW,230,0.0,-999.0,88,-99.99,,,-99.99,,2013-04-04 03:33:00,
2013-04-03 20:43:00,56.0,52.0,30.01,SW,230,0.0,-999.0,88,-99.99,,,-99.99,,2013-04-04 03:43:00,
2013-04-03 20:53:00,55.0,52.0,30.02,SW,230,0.0,-999.0,90,-99.99,,,-99.99,,2013-04-04 03:53:00,
2013-04-03 21:02:00,55.0,52.0,30.03,SW,232,0.0,-999.0,91,-99.99,,,-99.99,,2013-04-04 04:02:00,
2013-04-03 21:12:00,55.0,52.0,30.03,SW,232,0.0,-999.0,91,-99.99,,,-99.99,,2013-04-04 04:12:00,
2013-04-03 21:22:00,55.0,52.0,30.02,SW,232,0.0,-999.0,91,-99.99,,,-99.99,,2013-04-04 04:22:00,
2013-04-03 21:33:00,54.0,51.0,30.03,SW,232,0.0,-999.0,91,-99.99,,,-99.99,,2013-04-04 04:33:00,
2013-04-03 21:42:00,54.0,51.0,30.03,SW,232,0.0,-999.0,91,-99.99,,,-99.99,,2013-04-04 04:42:00,
2013-04-03 21:52:00,54.0,52.0,30.03,SW,232,0.0,-999.0,92,-99.99,,,-99.99,,2013-04-04 04:52:00,
2013-04-03 22:02:00,54.0,52.0,30.03,SW,232,0.0,-999.0,92,-99.99,,,-99.99,,2013-04-04 05:02:00,
2013-04-03 22:12:00,54.0,52.0,30.03,SW,232,0.0,-999.0,92,-99.99,,,-99.99,,2013-04-04 05:12:00,
2013-04-03 22:22:00,54.0,52.0,30.03,SW,232,0.0,-999.0,93,-99.99,,,-99.99,,2013-04-04 05:22:00,
2013-04-03 22:32:00,54.0,52.0,30.03,SW,232,0.0,-999.0,93,-99.99,,,-99.99,,2013-04-04 05:32:00,
2013-04-03 22:42:00,54.0,52.0,30.03,SW,232,0.0,-999.0,93,-99.99,,,-99.99,,2013-04-04 05:42:00,
2013-04-03 22:52:00,54.0,52.0,30.03,SW,232,0.0,-999.0,93,-99.99,,,-99.99,,2013-04-04 05:52:00,
2013-04-03 23:02:00,53.0,51.0,30.04,SW,232,0.0,-999.0,93,-99.99,,,-99.99,,2013-04-04 06:02:00,
2013-04-03 23:12:00,53.0,51.0,30.04,SW,232,0.0,-999.0,93,-99.99,,,-99.99,,2013-04-04 06:12:00,
2013-04-03 23:21:00,54.0,52.0,30.04,SW,230,0.0,-999.0,93,-99.99,,,-99.99,,2013-04-04 06:21:00,
2013-04-03 23:32:00,53.0,51.0,30.03,ENE,76,0.0,-999.0,94,-99.99,,,-99.99,,2013-04-04 06:32:00,
2013-04-03 23:42:00,53.0,51.0,30.03,ENE,76,0.0,-999.0,94,-99.99,,,-99.99,,2013-04-04 06:42:00,
2013-04-03 23:52:00,53.0,51.0,30.04,ENE,76,0.0,-999.0,94,-99.99,,,-99.99,,2013-04-04 06:52:00,